Tracking 23752 objects as of 24-Oct-2021
HD Live streaming from Space Station
objects crossing your sky now

BREEZE-M DEB

Track BREEZE-M DEB now!
10-day predictions


NORAD ID: 38622
Int'l Code: 2008-011BV
Perigee: 568.2 km
Apogee: 26,475.6 km
Inclination: 48.9 °
Period: 465.4 minutes
Semi major axis: 19892 km
RCS: 0.1286 m2 (medium)
Launch date: March 14, 2008
Source: Commonwealth of Independent States (former USSR) (CIS)
Launch site: TYURATAM MISSILE AND SPACE COMPLEX (TTMTR)

Note: This is SATELLITE DEBRIS
aabbcc
Your satellite tracking list
Your tracking list is empty




NASA's NSSDC Master Catalog

Two Line Element Set (TLE):
1 38622U 08011BV  21291.29714793  .00000753  00000-0  42253-2 0  9991
2 38622  48.8873 148.2676 6511713 140.0050 293.1425  3.09425066112565
Source of the keplerian elements: AFSPC